This is the latest recevied weather packets stored in our database for station/object SP2WPY-13. If no packets are shown the sender has not sent any weather packets the latest 10 day(s).
| Time | Temp. | Humidity | Pressure | Rain* | Wind** | Luminosity | Snow |
|---|---|---|---|---|---|---|---|
| 1777731082 | 22.78° C | 24% | 1021.4 hPa | - | - | - | - |
| 1777730763 | 22.78° C | 24% | 1021.5 hPa | - | - | - | - |
| 1777730489 | 22.78° C | 24% | 1021.5 hPa | - | - | - | - |
| 1777730169 | 22.78° C | 24% | 1021.6 hPa | - | - | - | - |
| 1777729895 | 22.78° C | 25% | 1021.6 hPa | - | - | - | - |
| 1777729576 | 22.22° C | 25% | 1021.8 hPa | - | - | - | - |
| 1777729301 | 22.22° C | 25% | 1021.7 hPa | - | - | - | - |
| 1777728982 | 22.22° C | 25% | 1021.7 hPa | - | - | - | - |
| 1777728662 | 22.78° C | 24% | 1021.8 hPa | - | - | - | - |
| 1777728388 | 23.89° C | 24% | 1021.8 hPa | - | - | - | - |
| 1777728069 | 23.33° C | 26% | 1021.8 hPa | - | - | - | - |
| 1777727794 | 23.33° C | 25% | 1021.9 hPa | - | - | - | - |
| 1777727474 | 23.89° C | 25% | 1021.9 hPa | - | - | - | - |
| 1777727200 | 24.44° C | 24% | 1022 hPa | - | - | - | - |
| 1777726880 | 24.44° C | 24% | 1022 hPa | - | - | - | - |
| 1777726605 | 24.44° C | 24% | 1022 hPa | - | - | - | - |
| 1777726286 | 24.44° C | 24% | 1022.2 hPa | - | - | - | - |
| 1777725966 | 24.44° C | 24% | 1022.2 hPa | - | - | - | - |
| 1777725693 | 24.44° C | 24% | 1022.3 hPa | - | - | - | - |
| 1777725372 | 24.44° C | 24% | 1022.3 hPa | - | - | - | - |
| 1777725098 | 24.44° C | 25% | 1022.5 hPa | - | - | - | - |
| 1777724779 | 23.89° C | 25% | 1022.4 hPa | - | - | - | - |
| 1777724505 | 23.89° C | 24% | 1022.6 hPa | - | - | - | - |
| 1777724185 | 25° C | 23% | 1022.6 hPa | - | - | - | - |
| 1777723865 | 25° C | 23% | 1022.6 hPa | - | - | - | - |
* Rain since midnight (hover to see other rain measurements)
** Current wind speed in m/s (hover to see current wind gust speed)